Location: Hermaringen
(48.5952°N, 10.2585°E)
Time: 09:34:30
(UTC+00:00)

A-11 Canister half - Pass Details

Date: 23 February 2026
Orbit: 1513 x 1687 km, 47.2° (Epoch: 11 March)

Event Time Altitude Azimuth Distance (km) Brightness Sun altitude
Rises 22:40:23 0° 278° (W) 4,935 11.9 -49.5°
Reaches altitude 10° 22:43:35 10° 277° (W) 3,936 11.3 -49.6°
Enters shadow 22:45:52 19° 276° (W) 3,236 10.7 -49.8°
